Вернуться в каталог

STARLINK-30285

АктивенСвязьVLEO
NORAD 57840·PAYLOAD·🇺🇸 United States

Запущен Sep 12, 2023 с Vandenberg Space Force Base

Loading…

Ближайшие Пролёты (ближайшие 24 часа)

TLE

СвежийSource: CelesTrak SupGP

Эпоха: Sep 15, 2026, 01:37 UTC

1 57840C 23141A   26258.06784722  .00039755  00000+0  12787-2 0  2587
2 57840  53.1580 123.0527 0001124  81.9817 245.5252 15.31676668    15

Отслеживайте STARLINK-30285 в реальном времени с AllMySat

Download on the App Store